| time (UTC) | temp F | wind direction | speed MPH | gust MPH | rain 1hr in | rain 24hr in | rain mn in | humidity % | barometer mb |
| 20260901114416 | 61 | 23 | 2.0 | 3.0 | 0.07 | 0.07 | 0.07 | 90 | 1018.4 |
| 20260901113416 | 61 | 0.0 | 0.0 | 0.06 | 0.06 | 0.06 | 89 | 1018.5 | |
| 20260901112417 | 61 | 23 | 2.0 | 3.0 | 0.04 | 0.04 | 0.04 | 89 | 1018.4 |
| 20260901111416 | 62 | 0.0 | 0.0 | 0.03 | 0.03 | 0.03 | 88 | 1018.3 | |
| 20260901110437 | 63 | 0.0 | 1.0 | 0.01 | 0.01 | 0.01 | 84 | 1018.1 | |
| 20260901105417 | 63 | 90 | 2.0 | 2.0 | 0.00 | 0.00 | 0.00 | 82 | 1017.9 |
| 20260901104417 | 64 | 23 | 1.0 | 2.0 | 0.00 | 0.00 | 0.00 | 82 | 1018.0 |
| 20260901103416 | 64 | 113 | 1.0 | 2.0 | 0.00 | 0.00 | 0.00 | 82 | 1017.7 |
| 20260901102417 | 64 | 113 | 3.0 | 5.0 | 0.00 | 0.00 | 0.00 | 82 | 1017.5 |
| 20260901101417 | 64 | 0.0 | 0.0 | 0.00 | 0.00 | 0.00 | 82 | 1017.5 | |
| 20260901100416 | 64 | 68 | 1.0 | 2.0 | 0.00 | 0.00 | 0.00 | 82 | 1017.5 |
| 20260901095417 | 64 | 45 | 1.0 | 2.0 | 0.00 | 0.00 | 0.00 | 85 | 1017.6 |
| 20260901094437 | 64 | 90 | 2.0 | 3.0 | 0.00 | 0.00 | 0.00 | 84 | 1017.4 |
| 20260901093437 | 64 | 45 | 2.0 | 2.0 | 0.00 | 0.00 | 0.00 | 86 | 1017.3 |
| 20260901092416 | 64 | 0.0 | 0.0 | 0.00 | 0.00 | 0.00 | 86 | 1017.4 | |
| 20260901091416 | 64 | 0.0 | 1.0 | 0.00 | 0.00 | 0.00 | 85 | 1017.4 | |
| 20260901090416 | 64 | 135 | 2.0 | 4.0 | 0.00 | 0.00 | 0.00 | 86 | 1017.5 |
| 20260901085416 | 64 | 0.0 | 0.0 | 0.00 | 0.00 | 0.00 | 88 | 1017.6 | |
| 20260901084416 | 64 | 45 | 1.0 | 2.0 | 0.00 | 0.00 | 0.00 | 91 | 1017.4 |
| 20260901083416 | 64 | 0.0 | 0.0 | 0.00 | 0.00 | 0.00 | 92 | 1017.5 | |
| 20260901082416 | 64 | 0.0 | 0.0 | 0.00 | 0.00 | 0.00 | 92 | 1017.7 | |
| 20260901081416 | 64 | 0.0 | 0.0 | 0.00 | 0.00 | 0.00 | 92 | 1017.7 | |
| 20260901080417 | 64 | 0.0 | 0.0 | 0.00 | 0.00 | 0.00 | 91 | 1017.7 | |
| 20260901075416 | 64 | 0.0 | 0.0 | 0.00 | 0.00 | 0.00 | 92 | 1017.8 | |
| 20260901074417 | 63 | 0.0 | 0.0 | 0.00 | 0.00 | 0.00 | 93 | 1017.7 | |
| 20260901073416 | 63 | 0.0 | 0.0 | 0.00 | 0.00 | 0.00 | 92 | 1017.7 | |
| 20260901072437 | 63 | 0.0 | 0.0 | 0.00 | 0.00 | 0.00 | 92 | 1017.7 | |
| 20260901071416 | 63 | 0.0 | 0.0 | 0.00 | 0.00 | 0.00 | 92 | 1017.8 | |
| 20260901070416 | 63 | 0.0 | 0.0 | 0.00 | 0.00 | 0.00 | 92 | 1017.8 | |
| 20260901065416 | 63 | 0.0 | 0.0 | 0.00 | 0.00 | 0.00 | 92 | 1018.0 | |
| 20260901064416 | 63 | 0 | 1.0 | 1.0 | 0.00 | 0.00 | 0.00 | 93 | 1018.0 |
| 20260901063416 | 62 | 0.0 | 0.0 | 0.00 | 0.00 | 0.00 | 93 | 1017.9 | |
| 20260901062417 | 62 | 0.0 | 0.0 | 0.00 | 0.00 | 0.00 | 93 | 1018.2 | |
| 20260901061416 | 62 | 0.0 | 0.0 | 0.00 | 0.00 | 0.00 | 93 | 1018.2 | |
| 20260901060416 | 62 | 0.0 | 0.0 | 0.00 | 0.00 | 0.00 | 92 | 1018.2 | |
| 20260901055416 | 62 | 0.0 | 0.0 | 0.00 | 0.00 | 0.00 | 93 | 1018.3 | |
| 20260901054416 | 62 | 0.0 | 0.0 | 0.00 | 0.00 | 0.00 | 92 | 1018.2 | |
| 20260901053416 | 62 | 0.0 | 0.0 | 0.00 | 0.00 | 0.00 | 92 | 1018.2 | |
| 20260901052416 | 62 | 0.0 | 0.0 | 0.00 | 0.00 | 0.00 | 92 | 1018.3 | |
| 20260901051416 | 62 | 0.0 | 0.0 | 0.00 | 0.00 | 0.00 | 92 | 1018.4 | |
| 20260901050417 | 62 | 0.0 | 0.0 | 0.00 | 0.00 | 0.00 | 91 | 1018.3 | |
| 20260901045416 | 62 | 0.0 | 0.0 | 0.00 | 0.00 | 0.00 | 91 | 1018.3 | |
| 20260901044416 | 62 | 0.0 | 0.0 | 0.00 | 0.00 | 0.00 | 91 | 1018.2 | |
| 20260901043457 | 62 | 0.0 | 0.0 | 0.00 | 0.00 | 0.00 | 90 | 1018.2 | |
| 20260901042416 | 63 | 0.0 | 0.0 | 0.00 | 0.00 | 0.00 | 90 | 1018.0 | |
| 20260901041436 | 63 | 0.0 | 0.0 | 0.00 | 0.00 | 0.00 | 91 | 1018.1 | |
| 20260901040416 | 63 | 0.0 | 0.0 | 0.00 | 0.00 | 0.00 | 91 | 1018.2 | |
| 20260901035417 | 63 | 0.0 | 0.0 | 0.00 | 0.00 | 0.00 | 91 | 1018.0 | |
| 20260901034418 | 62 | 0.0 | 0.0 | 0.00 | 0.00 | 0.00 | 90 | 1018.1 | |
| 20260901033417 | 62 | 0.0 | 0.0 | 0.00 | 0.00 | 0.00 | 90 | 1018.2 | |
| 20260901032417 | 62 | 0.0 | 0.0 | 0.00 | 0.00 | 0.00 | 89 | 1018.2 | |
| 20260901031417 | 62 | 0.0 | 0.0 | 0.00 | 0.00 | 0.00 | 89 | 1018.1 | |
| 20260901030417 | 62 | 0.0 | 0.0 | 0.00 | 0.00 | 0.00 | 89 | 1017.8 | |
| 20260901025437 | 62 | 0.0 | 0.0 | 0.00 | 0.00 | 0.00 | 89 | 1018.0 | |
| 20260901024417 | 62 | 0.0 | 0.0 | 0.00 | 0.00 | 0.00 | 88 | 1018.1 | |
| 20260901023418 | 62 | 0.0 | 0.0 | 0.00 | 0.00 | 0.00 | 87 | 1018.2 | |
| 20260901022415 | 62 | 0.0 | 0.0 | 0.00 | 0.00 | 0.00 | 86 | 1018.2 | |
| 20260901021417 | 62 | 0.0 | 0.0 | 0.00 | 0.00 | 0.00 | 85 | 1018.1 | |
| 20260901020417 | 62 | 0.0 | 0.0 | 0.00 | 0.00 | 0.00 | 84 | 1018.1 | |
| 20260901015417 | 63 | 0.0 | 0.0 | 0.00 | 0.00 | 0.00 | 83 | 1018.0 | |
| 20260901014417 | 63 | 0.0 | 0.0 | 0.00 | 0.00 | 0.00 | 82 | 1018.0 | |
| 20260901013417 | 63 | 0.0 | 0.0 | 0.00 | 0.00 | 0.00 | 80 | 1018.0 | |
| 20260901012417 | 64 | 0.0 | 0.0 | 0.00 | 0.00 | 0.00 | 79 | 1018.0 | |
| 20260901011457 | 64 | 0.0 | 0.0 | 0.00 | 0.00 | 0.00 | 78 | 1017.9 | |
| 20260901010417 | 64 | 0.0 | 0.0 | 0.00 | 0.00 | 0.00 | 79 | 1018.0 | |
| 20260901005417 | 65 | 0.0 | 0.0 | 0.00 | 0.00 | 0.00 | 79 | 1018.0 | |
| 20260901004417 | 65 | 0.0 | 0.0 | 0.00 | 0.00 | 0.00 | 77 | 1018.1 | |
| 20260901003417 | 65 | 0.0 | 0.0 | 0.00 | 0.00 | 0.00 | 76 | 1018.1 | |
| 20260901002417 | 66 | 0.0 | 0.0 | 0.00 | 0.00 | 0.00 | 76 | 1018.0 | |
| 20260901001417 | 66 | 0.0 | 0.0 | 0.00 | 0.00 | 0.00 | 74 | 1017.8 | |
| 20260901000417 | 66 | 0.0 | 0.0 | 0.00 | 0.00 | 0.00 | 71 | 1017.7 | |
| 20260831235437 | 67 | 0.0 | 0.0 | 0.00 | 0.00 | 0.00 | 71 | 1017.8 | |
| 20260831234417 | 67 | 0.0 | 0.0 | 0.00 | 0.00 | 0.00 | 71 | 1017.8 | |
| 20260831233417 | 68 | 338 | 1.0 | 1.0 | 0.00 | 0.00 | 0.00 | 70 | 1017.7 |
| 20260831232457 | 69 | 0.0 | 2.0 | 0.00 | 0.00 | 0.00 | 69 | 1017.8 | |
| 20260831231417 | 69 | 338 | 1.0 | 3.0 | 0.00 | 0.00 | 0.00 | 68 | 1017.9 |
| 20260831230417 | 71 | 0.0 | 0.0 | 0.00 | 0.00 | 0.00 | 63 | 1018.1 | |
| 20260831225417 | 71 | 0.0 | 1.0 | 0.00 | 0.00 | 0.00 | 60 | 1018.3 | |
| 20260831224417 | 72 | 293 | 1.0 | 1.0 | 0.00 | 0.00 | 0.00 | 59 | 1018.2 |
| 20260831223417 | 72 | 0.0 | 1.0 | 0.00 | 0.00 | 0.00 | 58 | 1018.2 | |
| 20260831222417 | 73 | 0.0 | 0.0 | 0.00 | 0.00 | 0.00 | 58 | 1018.2 | |
| 20260831221417 | 73 | 315 | 2.0 | 3.0 | 0.00 | 0.00 | 0.00 | 58 | 1018.2 |
| 20260831220417 | 73 | 0 | 1.0 | 2.0 | 0.00 | 0.00 | 0.00 | 57 | 1018.1 |
| 20260831215417 | 74 | 0 | 3.0 | 6.0 | 0.00 | 0.00 | 0.00 | 55 | 1018.2 |
| 20260831214417 | 74 | 23 | 3.0 | 4.0 | 0.00 | 0.00 | 0.00 | 56 | 1018.2 |
| 20260831213417 | 74 | 315 | 1.0 | 2.0 | 0.00 | 0.00 | 0.00 | 57 | 1018.3 |
| 20260831212417 | 74 | 0 | 1.0 | 2.0 | 0.00 | 0.00 | 0.00 | 58 | 1018.1 |
| 20260831211417 | 73 | 0.0 | 2.0 | 0.00 | 0.00 | 0.00 | 58 | 1018.0 | |
| 20260831210417 | 73 | 23 | 3.0 | 6.0 | 0.00 | 0.00 | 0.00 | 61 | 1018.1 |
| 20260831205417 | 73 | 0.0 | 0.0 | 0.00 | 0.00 | 0.00 | 61 | 1018.2 | |
| 20260831204417 | 74 | 0 | 3.0 | 5.0 | 0.00 | 0.00 | 0.00 | 61 | 1018.4 |
| 20260831203417 | 74 | 293 | 1.0 | 2.0 | 0.00 | 0.00 | 0.00 | 61 | 1018.5 |
| 20260831202417 | 74 | 23 | 2.0 | 4.0 | 0.00 | 0.00 | 0.00 | 60 | 1018.5 |
| 20260831201437 | 74 | 23 | 2.0 | 4.0 | 0.00 | 0.00 | 0.00 | 59 | 1018.4 |
| 20260831200417 | 74 | 0 | 5.0 | 7.0 | 0.00 | 0.00 | 0.00 | 58 | 1018.7 |
| 20260831195417 | 74 | 45 | 2.0 | 3.0 | 0.00 | 0.00 | 0.00 | 58 | 1018.6 |
| 20260831194417 | 74 | 338 | 2.0 | 3.0 | 0.00 | 0.00 | 0.00 | 57 | 1018.8 |
| 20260831193417 | 73 | 23 | 3.0 | 6.0 | 0.00 | 0.00 | 0.00 | 57 | 1018.8 |
| 20260831192417 | 74 | 293 | 3.0 | 5.0 | 0.00 | 0.00 | 0.00 | 58 | 1018.9 |
| 20260831191417 | 74 | 0 | 2.0 | 4.0 | 0.00 | 0.00 | 0.00 | 56 | 1018.9 |
| 20260831190417 | 74 | 0 | 1.0 | 2.0 | 0.00 | 0.00 | 0.00 | 52 | 1019.0 |
| 20260831185418 | 74 | 180 | 3.0 | 4.0 | 0.00 | 0.00 | 0.00 | 51 | 1019.0 |
| 20260831184417 | 74 | 158 | 5.0 | 8.0 | 0.00 | 0.00 | 0.00 | 50 | 1019.1 |
| 20260831183437 | 74 | 90 | 1.0 | 2.0 | 0.00 | 0.00 | 0.00 | 46 | 1019.3 |
| 20260831182417 | 73 | 315 | 1.0 | 2.0 | 0.00 | 0.00 | 0.00 | 42 | 1019.3 |
| 20260831181417 | 73 | 158 | 4.0 | 6.0 | 0.00 | 0.00 | 0.00 | 45 | 1019.3 |
| 20260831180417 | 72 | 203 | 2.0 | 3.0 | 0.00 | 0.00 | 0.00 | 46 | 1019.6 |
| 20260831175417 | 72 | 0 | 1.0 | 1.0 | 0.00 | 0.00 | 0.00 | 40 | 1019.6 |
| 20260831174417 | 72 | 0 | 3.0 | 5.0 | 0.00 | 0.00 | 0.00 | 46 | 1019.7 |
| 20260831173417 | 72 | 23 | 3.0 | 5.0 | 0.00 | 0.00 | 0.00 | 47 | 1019.8 |
| 20260831172417 | 72 | 23 | 4.0 | 5.0 | 0.00 | 0.00 | 0.00 | 53 | 1020.0 |
| 20260831171417 | 72 | 68 | 1.0 | 2.0 | 0.00 | 0.00 | 0.00 | 55 | 1020.0 |
| 20260831170417 | 72 | 270 | 1.0 | 3.0 | 0.00 | 0.00 | 0.00 | 57 | 1020.2 |
| 20260831165417 | 71 | 158 | 2.0 | 4.0 | 0.00 | 0.00 | 0.00 | 55 | 1020.3 |
| 20260831164417 | 70 | 135 | 3.0 | 4.0 | 0.00 | 0.00 | 0.00 | 53 | 1020.3 |
| 20260831163417 | 70 | 158 | 3.0 | 4.0 | 0.00 | 0.00 | 0.00 | 54 | 1020.4 |
| 20260831162437 | 70 | 158 | 4.0 | 5.0 | 0.00 | 0.00 | 0.00 | 54 | 1020.4 |
| 20260831161418 | 70 | 68 | 3.0 | 5.0 | 0.00 | 0.00 | 0.00 | 54 | 1020.5 |
| 20260831160417 | 70 | 0 | 4.0 | 6.0 | 0.00 | 0.00 | 0.00 | 57 | 1020.5 |
| 20260831155417 | 69 | 23 | 4.0 | 6.0 | 0.00 | 0.00 | 0.00 | 54 | 1020.6 |
| 20260831154417 | 69 | 23 | 4.0 | 5.0 | 0.00 | 0.00 | 0.00 | 54 | 1020.6 |
| 20260831153417 | 69 | 0 | 6.0 | 8.0 | 0.00 | 0.00 | 0.00 | 54 | 1020.6 |
| 20260831152417 | 68 | 23 | 4.0 | 5.0 | 0.00 | 0.00 | 0.00 | 53 | 1020.5 |
| 20260831151437 | 68 | 0 | 7.0 | 9.0 | 0.00 | 0.00 | 0.00 | 58 | 1020.5 |
| 20260831150417 | 67 | 0 | 5.0 | 7.0 | 0.00 | 0.00 | 0.00 | 59 | 1020.7 |
| 20260831145417 | 67 | 23 | 7.0 | 10.0 | 0.00 | 0.00 | 0.00 | 62 | 1020.7 |
| 20260831144417 | 67 | 23 | 6.0 | 8.0 | 0.00 | 0.00 | 0.00 | 62 | 1020.8 |
| 20260831143417 | 67 | 0 | 3.0 | 4.0 | 0.00 | 0.00 | 0.00 | 64 | 1020.8 |
| 20260831142417 | 66 | 0 | 4.0 | 5.0 | 0.00 | 0.00 | 0.00 | 66 | 1020.9 |
| 20260831141437 | 66 | 0 | 4.0 | 5.0 | 0.00 | 0.00 | 0.00 | 70 | 1020.8 |
| 20260831140417 | 65 | 23 | 6.0 | 7.0 | 0.00 | 0.00 | 0.00 | 69 | 1020.8 |
| 20260831135417 | 65 | 23 | 6.0 | 8.0 | 0.00 | 0.00 | 0.00 | 68 | 1020.7 |
| 20260831134417 | 65 | 23 | 4.0 | 7.0 | 0.00 | 0.00 | 0.00 | 71 | 1020.5 |
| 20260831133417 | 64 | 23 | 5.0 | 7.0 | 0.00 | 0.00 | 0.00 | 73 | 1020.6 |
| 20260831132417 | 64 | 0 | 4.0 | 8.0 | 0.00 | 0.00 | 0.00 | 74 | 1020.6 |
| 20260831131417 | 63 | 23 | 4.0 | 5.0 | 0.00 | 0.00 | 0.00 | 77 | 1020.6 |
| 20260831130437 | 63 | 0 | 6.0 | 8.0 | 0.00 | 0.00 | 0.00 | 77 | 1020.8 |
| 20260831125417 | 62 | 0 | 6.0 | 8.0 | 0.00 | 0.00 | 0.00 | 78 | 1020.8 |
| 20260831124417 | 62 | 23 | 3.0 | 9.0 | 0.00 | 0.00 | 0.00 | 78 | 1020.8 |
| 20260831123417 | 62 | 23 | 4.0 | 6.0 | 0.00 | 0.00 | 0.00 | 81 | 1020.7 |
| 20260831122417 | 61 | 0 | 5.0 | 7.0 | 0.00 | 0.00 | 0.00 | 82 | 1020.6 |
| 20260831121417 | 61 | 45 | 4.0 | 5.0 | 0.00 | 0.00 | 0.00 | 83 | 1020.6 |
| 20260831120417 | 61 | 90 | 2.0 | 3.0 | 0.00 | 0.00 | 0.00 | 85 | 1020.7 |
| 20260831115417 | 60 | 113 | 3.0 | 6.0 | 0.00 | 0.00 | 0.00 | 88 | 1020.7 |